Wetterdaten: aktuell Sonntag, 21.01.2018 19:05
Datum Zeit Temp. A. Feuchte A. Luftdruck Regen Wind Richtung Richtung Sonnenschein Solar Taupunkt Windben
21.01.2018 19:05 -0,6 C 97 % 1016,1 hPa 0,0 l/m 3,6 km/h (1 Bft) S 189 0 min 0 W/m -1,0 C 8,0 km/h (2 Bft)
21.01.2018 19:00 -0,7 C 97 % 1015,9 hPa 0,0 l/m 3,3 km/h (1 Bft) S-SO 166 0 min 0 W/m -1,1 C 8,0 km/h (2 Bft)
21.01.2018 18:55 -0,8 C 97 % 1016,1 hPa 0,0 l/m 1,8 km/h (1 Bft) S 181 0 min 0 W/m -1,2 C 4,8 km/h (1 Bft)
21.01.2018 18:50 -0,8 C 97 % 1015,9 hPa 0,0 l/m 2,4 km/h (1 Bft) S 171 0 min 0 W/m -1,2 C 6,4 km/h (2 Bft)
21.01.2018 18:45 -0,9 C 97 % 1015,7 hPa 0,0 l/m 2,2 km/h (1 Bft) S 174 0 min 0 W/m -1,3 C 8,0 km/h (2 Bft)
21.01.2018 18:40 -1,0 C 97 % 1015,7 hPa 0,0 l/m 0,9 km/h (0 Bft) O-SO 119 0 min 0 W/m -1,4 C 3,2 km/h (1 Bft)
21.01.2018 18:35 -1,0 C 97 % 1015,7 hPa 0,0 l/m 1,3 km/h (1 Bft) O-NO 61 0 min 0 W/m -1,4 C 4,8 km/h (1 Bft)
21.01.2018 18:30 -1,1 C 97 % 1015,6 hPa 0,0 l/m 0,6 km/h (0 Bft) O-SO 117 0 min 0 W/m -1,5 C 3,2 km/h (1 Bft)
21.01.2018 18:25 -1,1 C 97 % 1015,8 hPa 0,0 l/m 1,5 km/h (1 Bft) O-SO 117 0 min 0 W/m -1,5 C 4,8 km/h (1 Bft)
21.01.2018 18:20 -1,1 C 97 % 1015,7 hPa 0,0 l/m 1,7 km/h (1 Bft) O-SO 112 0 min 0 W/m -1,5 C 4,8 km/h (1 Bft)
21.01.2018 18:15 -1,1 C 97 % 1015,7 hPa 0,0 l/m 1,3 km/h (1 Bft) O 89 0 min 0 W/m -1,5 C 3,2 km/h (1 Bft)
21.01.2018 18:10 -1,1 C 97 % 1015,7 hPa 0,0 l/m 0,5 km/h (0 Bft) SO 131 0 min 0 W/m -1,5 C 3,2 km/h (1 Bft)
21.01.2018 18:05 -1,1 C 97 % 1015,8 hPa 0,0 l/m 0,0 km/h (0 Bft) SO 131 0 min 0 W/m -1,5 C 0,0 km/h (0 Bft)
21.01.2018 18:00 -1,1 C 97 % 1015,9 hPa 0,0 l/m 0,6 km/h (0 Bft) SO 131 0 min 0 W/m -1,5 C 1,6 km/h (1 Bft)
21.01.2018 17:55 -1,1 C 97 % 1015,9 hPa 0,0 l/m 0,9 km/h (0 Bft) SO 131 0 min 0 W/m -1,5 C 3,2 km/h (1 Bft)
21.01.2018 17:50 -1,1 C 97 % 1016,1 hPa 0,0 l/m 2,6 km/h (1 Bft) SO 131 0 min 0 W/m -1,5 C 6,4 km/h (2 Bft)
21.01.2018 17:45 -1,0 C 97 % 1016,0 hPa 0,0 l/m 2,1 km/h (1 Bft) S 171 0 min 0 W/m -1,4 C 6,4 km/h (2 Bft)
21.01.2018 17:40 -0,9 C 97 % 1016,2 hPa 0,0 l/m 3,5 km/h (1 Bft) SW 225 0 min 0 W/m -1,3 C 6,4 km/h (2 Bft)
21.01.2018 17:35 -0,8 C 97 % 1016,2 hPa 0,0 l/m 1,7 km/h (1 Bft) S-SW 192 0 min 0 W/m -1,2 C 6,4 km/h (2 Bft)
21.01.2018 17:30 -0,8 C 97 % 1016,1 hPa 0,0 l/m 2,8 km/h (1 Bft) S 173 0 min 0 W/m -1,2 C 6,4 km/h (2 Bft)
21.01.2018 17:25 -0,8 C 97 % 1016,2 hPa 0,0 l/m 3,7 km/h (1 Bft) SO 142 0 min 0 W/m -1,2 C 9,7 km/h (2 Bft)
21.01.2018 17:20 -0,7 C 97 % 1016,0 hPa 0,0 l/m 2,2 km/h (1 Bft) S-SO 167 0 min 0 W/m -1,1 C 8,0 km/h (2 Bft)
21.01.2018 17:15 -0,7 C 97 % 1015,8 hPa 0,0 l/m 1,3 km/h (1 Bft) SO 138 0 min 0 W/m -1,1 C 4,8 km/h (1 Bft)
21.01.2018 17:10 -0,6 C 97 % 1015,8 hPa 0,0 l/m 1,4 km/h (1 Bft) S-SO 158 0 min 0 W/m -1,0 C 6,4 km/h (2 Bft)
21.01.2018 17:05 -0,6 C 97 % 1015,8 hPa 0,0 l/m 1,3 km/h (1 Bft) S-SO 165 0 min 0 W/m -1,0 C 4,8 km/h (1 Bft)
21.01.2018 17:00 -0,6 C 97 % 1015,8 hPa 0,0 l/m 1,6 km/h (1 Bft) S 186 0 min 0 W/m -1,0 C 3,2 km/h (1 Bft)
21.01.2018 16:55 -0,6 C 97 % 1015,8 hPa 0,0 l/m 3,0 km/h (1 Bft) S 189 0 min 0 W/m -1,0 C 6,4 km/h (2 Bft)
21.01.2018 16:50 -0,6 C 97 % 1015,8 hPa 0,0 l/m 1,5 km/h (1 Bft) S-SO 157 0 min 0 W/m -1,0 C 3,2 km/h (1 Bft)
21.01.2018 16:45 -0,6 C 97 % 1015,8 hPa 0,0 l/m 0,0 km/h (0 Bft) S-SO 157 0 min 0 W/m -1,0 C 0,0 km/h (0 Bft)
21.01.2018 16:40 -0,5 C 97 % 1015,8 hPa 0,0 l/m 0,1 km/h (0 Bft) S-SO 157 0 min 0 W/m -0,9 C 1,6 km/h (1 Bft)
21.01.2018 16:35 -0,5 C 97 % 1015,7 hPa 0,0 l/m 0,0 km/h (0 Bft) S-SO 157 0 min 0 W/m -0,9 C 1,6 km/h (1 Bft)
21.01.2018 16:30 -0,5 C 97 % 1015,7 hPa 0,0 l/m 0,0 km/h (0 Bft) S-SO 157 0 min 0 W/m -0,9 C 3,2 km/h (1 Bft)
21.01.2018 16:25 -0,5 C 97 % 1015,7 hPa 0,0 l/m 1,6 km/h (1 Bft) S-SO 157 0 min 0 W/m -0,9 C 6,4 km/h (2 Bft)
21.01.2018 16:20 -0,4 C 97 % 1015,6 hPa 0,0 l/m 0,0 km/h (0 Bft) S-SO 157 0 min 4 W/m -0,8 C 3,2 km/h (1 Bft)
21.01.2018 16:15 -0,4 C 97 % 1015,6 hPa 0,0 l/m 0,0 km/h (0 Bft) S-SO 157 0 min 6 W/m -0,8 C 1,6 km/h (1 Bft)
21.01.2018 16:10 -0,4 C 97 % 1015,6 hPa 0,0 l/m 0,0 km/h (0 Bft) S-SO 157 0 min 7 W/m -0,8 C 1,6 km/h (1 Bft)
21.01.2018 16:05 -0,4 C 97 % 1015,5 hPa 0,0 l/m 0,0 km/h (0 Bft) S-SO 157 0 min 12 W/m -0,8 C 1,6 km/h (1 Bft)
21.01.2018 16:00 -0,4 C 97 % 1015,5 hPa 0,0 l/m 0,0 km/h (0 Bft) S-SO 157 0 min 16 W/m -0,8 C 3,2 km/h (1 Bft)
21.01.2018 15:55 -0,4 C 97 % 1015,4 hPa 0,0 l/m 1,6 km/h (1 Bft) S-SO 157 0 min 15 W/m -0,8 C 3,2 km/h (1 Bft)
21.01.2018 15:50 -0,3 C 97 % 1015,4 hPa 0,0 l/m 1,6 km/h (1 Bft) S-SO 157 0 min 13 W/m -0,7 C 3,2 km/h (1 Bft)
21.01.2018 15:45 -0,3 C 97 % 1015,4 hPa 0,0 l/m 0,0 km/h (0 Bft) S-SO 157 0 min 21 W/m -0,7 C 3,2 km/h (1 Bft)
21.01.2018 15:40 -0,3 C 97 % 1015,4 hPa 0,0 l/m 1,6 km/h (1 Bft) S-SO 157 0 min 23 W/m -0,7 C 6,4 km/h (2 Bft)
21.01.2018 15:35 -0,2 C 97 % 1015,3 hPa 0,0 l/m 1,6 km/h (1 Bft) S 180 0 min 29 W/m -0,6 C 4,8 km/h (1 Bft)
21.01.2018 15:30 -0,1 C 97 % 1015,2 hPa 0,0 l/m 1,6 km/h (1 Bft) S 180 0 min 35 W/m -0,5 C 4,8 km/h (1 Bft)
21.01.2018 15:25 -0,1 C 97 % 1015,2 hPa 0,0 l/m 1,6 km/h (1 Bft) SO 135 0 min 37 W/m -0,5 C 3,2 km/h (1 Bft)
21.01.2018 15:20 -0,2 C 97 % 1015,2 hPa 0,0 l/m 0,0 km/h (0 Bft) SO 135 0 min 38 W/m -0,6 C 1,6 km/h (1 Bft)
21.01.2018 15:15 -0,2 C 97 % 1015,1 hPa 0,0 l/m 0,3 km/h (0 Bft) SO 144 0 min 39 W/m -0,6 C 1,6 km/h (1 Bft)
21.01.2018 15:10 -0,3 C 97 % 1015,1 hPa 0,0 l/m 0,0 km/h (0 Bft) SO 144 0 min 38 W/m -0,7 C 0,0 km/h (0 Bft)
21.01.2018 15:05 -0,3 C 97 % 1015,0 hPa 0,0 l/m 0,1 km/h (0 Bft) SO 144 0 min 46 W/m -0,7 C 1,6 km/h (1 Bft)
21.01.2018 15:00 -0,3 C 97 % 1015,0 hPa 0,0 l/m 0,2 km/h (0 Bft) SO 144 0 min 49 W/m -0,7 C 1,6 km/h (1 Bft)
21.01.2018 14:55 -0,3 C 97 % 1014,9 hPa 0,0 l/m 0,2 km/h (0 Bft) SO 144 0 min 58 W/m -0,7 C 1,6 km/h (1 Bft)
21.01.2018 14:50 -0,4 C 97 % 1014,9 hPa 0,0 l/m 0,3 km/h (0 Bft) SO 144 0 min 55 W/m -0,8 C 3,2 km/h (1 Bft)
21.01.2018 14:45 -0,4 C 97 % 1015,0 hPa 0,0 l/m 0,3 km/h (0 Bft) SO 144 0 min 59 W/m -0,8 C 1,6 km/h (1 Bft)
21.01.2018 14:40 -0,5 C 97 % 1014,9 hPa 0,0 l/m 0,0 km/h (0 Bft) SO 144 0 min 68 W/m -0,9 C 0,0 km/h (0 Bft)
21.01.2018 14:35 -0,6 C 97 % 1014,8 hPa 0,0 l/m 0,0 km/h (0 Bft) SO 144 0 min 72 W/m -1,0 C 0,0 km/h (0 Bft)
21.01.2018 14:30 -0,7 C 97 % 1014,8 hPa 0,2 l/m 0,2 km/h (0 Bft) SO 144 0 min 76 W/m -1,1 C 3,2 km/h (1 Bft)
21.01.2018 14:25 -0,7 C 97 % 1014,7 hPa 0,0 l/m 0,2 km/h (0 Bft) SO 144 0 min 81 W/m -1,1 C 1,6 km/h (1 Bft)
21.01.2018 14:20 -0,7 C 97 % 1014,6 hPa 0,0 l/m 2,3 km/h (1 Bft) SO 144 0 min 74 W/m -1,1 C 6,4 km/h (2 Bft)
21.01.2018 14:15 -0,7 C 97 % 1014,6 hPa 0,0 l/m 0,7 km/h (0 Bft) O-NO 69 0 min 90 W/m -1,1 C 3,2 km/h (1 Bft)
21.01.2018 14:10 -0,8 C 97 % 1014,4 hPa 0,0 l/m 0,6 km/h (0 Bft) O-NO 69 0 min 107 W/m -1,2 C 1,6 km/h (1 Bft)
21.01.2018 14:05 -0,8 C 97 % 1014,3 hPa 0,0 l/m 0,4 km/h (0 Bft) O-NO 69 0 min 89 W/m -1,2 C 3,2 km/h (1 Bft)
21.01.2018 14:00 -0,8 C 97 % 1014,2 hPa 0,0 l/m 0,1 km/h (0 Bft) O-NO 69 0 min 115 W/m -1,2 C 1,6 km/h (1 Bft)
21.01.2018 13:55 -1,0 C 97 % 1014,1 hPa 0,0 l/m 0,9 km/h (0 Bft) O-NO 69 0 min 105 W/m -1,4 C 3,2 km/h (1 Bft)
21.01.2018 13:50 -1,0 C 97 % 1014,1 hPa 0,0 l/m 0,6 km/h (0 Bft) O-NO 69 0 min 105 W/m -1,4 C 3,2 km/h (1 Bft)
21.01.2018 13:45 -1,1 C 97 % 1014,1 hPa 0,0 l/m 0,7 km/h (0 Bft) O-NO 69 0 min 98 W/m -1,5 C 3,2 km/h (1 Bft)
21.01.2018 13:40 -1,2 C 97 % 1014,1 hPa 0,0 l/m 1,5 km/h (1 Bft) O-NO 69 0 min 109 W/m -1,6 C 3,2 km/h (1 Bft)
21.01.2018 13:35 -1,3 C 97 % 1014,1 hPa 0,0 l/m 0,5 km/h (0 Bft) NO 54 0 min 109 W/m -1,7 C 1,6 km/h (1 Bft)
21.01.2018 13:30 -1,4 C 97 % 1014,1 hPa 0,0 l/m 0,8 km/h (0 Bft) NO 54 0 min 120 W/m -1,8 C 3,2 km/h (1 Bft)
21.01.2018 13:25 -1,4 C 97 % 1014,0 hPa 0,0 l/m 1,0 km/h (0 Bft) NO 54 0 min 111 W/m -1,8 C 3,2 km/h (1 Bft)
21.01.2018 13:20 -1,5 C 97 % 1014,0 hPa 0,0 l/m 1,0 km/h (0 Bft) NO 54 0 min 112 W/m -1,9 C 3,2 km/h (1 Bft)
21.01.2018 13:15 -1,4 C 97 % 1014,0 hPa 0,0 l/m 0,7 km/h (0 Bft) NO 54 0 min 125 W/m -1,8 C 3,2 km/h (1 Bft)
21.01.2018 13:10 -1,5 C 97 % 1014,0 hPa 0,0 l/m 1,4 km/h (1 Bft) NO 54 0 min 116 W/m -1,9 C 4,8 km/h (1 Bft)
21.01.2018 13:05 -1,4 C 97 % 1014,0 hPa 0,0 l/m 0,9 km/h (0 Bft) O-NO 77 0 min 113 W/m -1,8 C 3,2 km/h (1 Bft)
21.01.2018 13:00 -1,4 C 97 % 1013,9 hPa 0,0 l/m 1,5 km/h (1 Bft) O-NO 77 0 min 112 W/m -1,8 C 3,2 km/h (1 Bft)
21.01.2018 12:55 -1,4 C 97 % 1013,9 hPa 0,0 l/m 0,6 km/h (0 Bft) O-NO 77 0 min 123 W/m -1,8 C 3,2 km/h (1 Bft)
21.01.2018 12:50 -1,4 C 97 % 1013,9 hPa 0,0 l/m 0,8 km/h (0 Bft) O-NO 77 0 min 129 W/m -1,8 C 3,2 km/h (1 Bft)
21.01.2018 12:45 -1,4 C 97 % 1013,9 hPa 0,0 l/m 0,6 km/h (0 Bft) O-NO 77 0 min 135 W/m -1,8 C 3,2 km/h (1 Bft)
21.01.2018 12:40 -1,5 C 97 % 1013,9 hPa 0,0 l/m 1,0 km/h (0 Bft) O-NO 77 0 min 128 W/m -1,9 C 3,2 km/h (1 Bft)
21.01.2018 12:35 -1,6 C 97 % 1013,9 hPa 0,0 l/m 0,5 km/h (0 Bft) O-NO 77 0 min 136 W/m -2,0 C 3,2 km/h (1 Bft)
21.01.2018 12:30 -1,6 C 97 % 1013,9 hPa 0,0 l/m 0,3 km/h (0 Bft) O-NO 77 0 min 132 W/m -2,0 C 3,2 km/h (1 Bft)
21.01.2018 12:25 -1,6 C 97 % 1013,9 hPa 0,0 l/m 0,3 km/h (0 Bft) O-NO 77 0 min 130 W/m -2,0 C 1,6 km/h (1 Bft)
21.01.2018 12:20 -1,8 C 97 % 1013,7 hPa 0,0 l/m 0,7 km/h (0 Bft) O-NO 78 0 min 131 W/m -2,2 C 3,2 km/h (1 Bft)
21.01.2018 12:15 -1,6 C 97 % 1013,7 hPa 0,0 l/m 0,9 km/h (0 Bft) O-NO 77 0 min 139 W/m -2,0 C 3,2 km/h (1 Bft)
21.01.2018 12:10 -1,7 C 97 % 1013,7 hPa 0,0 l/m 0,1 km/h (0 Bft) O-NO 77 0 min 134 W/m -2,1 C 1,6 km/h (1 Bft)
21.01.2018 12:05 -1,7 C 97 % 1013,7 hPa 0,0 l/m 0,7 km/h (0 Bft) O-NO 78 0 min 128 W/m -2,1 C 3,2 km/h (1 Bft)
21.01.2018 12:00 -1,8 C 97 % 1013,6 hPa 0,0 l/m 0,8 km/h (0 Bft) O-NO 78 0 min 131 W/m -2,2 C 3,2 km/h (1 Bft)
21.01.2018 11:55 -1,8 C 97 % 1013,5 hPa 0,0 l/m 0,0 km/h (0 Bft) O-NO 67 0 min 126 W/m -2,2 C 3,2 km/h (1 Bft)
21.01.2018 11:50 -1,8 C 97 % 1013,4 hPa 0,0 l/m 1,6 km/h (1 Bft) O-NO 67 0 min 124 W/m -2,2 C 3,2 km/h (1 Bft)
21.01.2018 11:45 -1,9 C 97 % 1013,3 hPa 0,0 l/m 0,1 km/h (0 Bft) O-NO 78 0 min 125 W/m -2,3 C 1,6 km/h (1 Bft)
21.01.2018 11:40 -1,9 C 97 % 1013,3 hPa 0,0 l/m 0,1 km/h (0 Bft) O-NO 78 0 min 108 W/m -2,3 C 1,6 km/h (1 Bft)
21.01.2018 11:35 -2,0 C 97 % 1013,2 hPa 0,0 l/m 0,2 km/h (0 Bft) O-NO 78 0 min 105 W/m -2,4 C 1,6 km/h (1 Bft)
21.01.2018 11:30 -2,0 C 97 % 1013,1 hPa 0,0 l/m 0,0 km/h (0 Bft) O-NO 78 0 min 111 W/m -2,4 C 1,6 km/h (1 Bft)
21.01.2018 11:25 -2,1 C 97 % 1013,1 hPa 0,0 l/m 0,4 km/h (0 Bft) O-NO 78 0 min 111 W/m -2,5 C 3,2 km/h (1 Bft)
21.01.2018 11:20 -2,2 C 97 % 1013,0 hPa 0,0 l/m 0,0 km/h (0 Bft) O-NO 78 0 min 115 W/m -2,6 C 0,0 km/h (0 Bft)
21.01.2018 11:15 -2,3 C 96 % 1012,9 hPa 0,0 l/m 0,0 km/h (0 Bft) O-NO 78 0 min 111 W/m -2,8 C 0,0 km/h (0 Bft)
21.01.2018 11:10 -2,4 C 96 % 1012,9 hPa 0,0 l/m 0,0 km/h (0 Bft) O-NO 78 0 min 102 W/m -2,9 C 0,0 km/h (0 Bft)
21.01.2018 11:05 -2,3 C 96 % 1012,9 hPa 0,0 l/m 0,0 km/h (0 Bft) O-NO 78 0 min 102 W/m -2,8 C 0,0 km/h (0 Bft)
21.01.2018 11:00 -2,3 C 96 % 1012,9 hPa 0,0 l/m 0,0 km/h (0 Bft) O-NO 78 0 min 94 W/m -2,8 C 0,0 km/h (0 Bft)
21.01.2018 10:55 -2,3 C 96 % 1012,8 hPa 0,0 l/m 0,0 km/h (0 Bft) O-NO 78 0 min 91 W/m -2,8 C 0,0 km/h (0 Bft)
21.01.2018 10:50 -2,3 C 96 % 1012,7 hPa 0,0 l/m 0,0 km/h (0 Bft) O-NO 78 0 min 89 W/m -2,8 C 0,0 km/h (0 Bft)
21.01.2018 10:45 -2,3 C 96 % 1012,7 hPa 0,0 l/m 0,0 km/h (0 Bft) O-NO 78 0 min 81 W/m -2,8 C 0,0 km/h (0 Bft)
21.01.2018 10:40 -2,3 C 97 % 1012,6 hPa 0,0 l/m 0,0 km/h (0 Bft) O-NO 78 0 min 81 W/m -2,7 C 0,0 km/h (0 Bft)
21.01.2018 10:35 -2,4 C 97 % 1012,6 hPa 0,0 l/m 0,0 km/h (0 Bft) O-NO 78 0 min 83 W/m -2,8 C 0,0 km/h (0 Bft)
21.01.2018 10:30 -2,5 C 97 % 1012,5 hPa 0,0 l/m 0,0 km/h (0 Bft) O-NO 78 0 min 76 W/m -2,9 C 0,0 km/h (0 Bft)
21.01.2018 10:25 -2,6 C 97 % 1012,5 hPa 0,0 l/m 0,0 km/h (0 Bft) O-NO 78 0 min 74 W/m -3,0 C 0,0 km/h (0 Bft)
21.01.2018 10:20 -2,6 C 97 % 1012,4 hPa 0,0 l/m 0,0 km/h (0 Bft) O-NO 78 0 min 73 W/m -3,0 C 0,0 km/h (0 Bft)
21.01.2018 10:15 -2,7 C 96 % 1012,3 hPa 0,0 l/m 0,0 km/h (0 Bft) O-NO 78 0 min 68 W/m -3,2 C 0,0 km/h (0 Bft)
21.01.2018 10:10 -2,7 C 96 % 1012,2 hPa 0,0 l/m 0,0 km/h (0 Bft) O-NO 78 0 min 65 W/m -3,2 C 0,0 km/h (0 Bft)
21.01.2018 10:05 -2,7 C 96 % 1012,1 hPa 0,0 l/m 0,0 km/h (0 Bft) O-NO 78 0 min 62 W/m -3,2 C 0,0 km/h (0 Bft)
21.01.2018 10:00 -2,7 C 96 % 1011,9 hPa 0,0 l/m 0,4 km/h (0 Bft) O-NO 78 0 min 61 W/m -3,2 C 3,2 km/h (1 Bft)
21.01.2018 09:55 -2,6 C 96 % 1011,9 hPa 0,0 l/m 1,1 km/h (1 Bft) O-NO 78 0 min 54 W/m -3,1 C 3,2 km/h (1 Bft)
21.01.2018 09:50 -2,6 C 96 % 1011,9 hPa 0,0 l/m 0,9 km/h (0 Bft) O-NO 77 0 min 52 W/m -3,1 C 3,2 km/h (1 Bft)
21.01.2018 09:45 -2,6 C 96 % 1011,7 hPa 0,0 l/m 0,0 km/h (0 Bft) O-NO 76 0 min 49 W/m -3,1 C 1,6 km/h (1 Bft)
21.01.2018 09:40 -2,6 C 96 % 1011,6 hPa 0,0 l/m 0,6 km/h (0 Bft) O-NO 76 0 min 44 W/m -3,1 C 1,6 km/h (1 Bft)
21.01.2018 09:35 -2,6 C 96 % 1011,5 hPa 0,0 l/m 0,5 km/h (0 Bft) O-NO 76 0 min 41 W/m -3,1 C 3,2 km/h (1 Bft)
21.01.2018 09:30 -2,6 C 96 % 1011,4 hPa 0,0 l/m 0,5 km/h (0 Bft) O-NO 76 0 min 38 W/m -3,1 C 3,2 km/h (1 Bft)
21.01.2018 09:25 -2,5 C 96 % 1011,3 hPa 0,0 l/m 0,5 km/h (0 Bft) O-NO 77 0 min 33 W/m -3,0 C 3,2 km/h (1 Bft)
21.01.2018 09:20 -2,5 C 96 % 1011,2 hPa 0,0 l/m 0,7 km/h (0 Bft) O-NO 76 0 min 28 W/m -3,0 C 3,2 km/h (1 Bft)
21.01.2018 09:15 -2,5 C 96 % 1011,1 hPa 0,0 l/m 0,5 km/h (0 Bft) O-NO 76 0 min 24 W/m -3,0 C 1,6 km/h (1 Bft)
21.01.2018 09:10 -2,4 C 96 % 1011,0 hPa 0,0 l/m 0,4 km/h (0 Bft) O-NO 76 0 min 23 W/m -2,9 C 1,6 km/h (1 Bft)
21.01.2018 09:05 -2,4 C 96 % 1010,9 hPa 0,0 l/m 0,5 km/h (0 Bft) O-NO 76 0 min 21 W/m -2,9 C 1,6 km/h (1 Bft)
21.01.2018 09:00 -2,4 C 96 % 1010,7 hPa 0,0 l/m 0,0 km/h (0 Bft) O-NO 67 0 min 17 W/m -2,9 C 3,2 km/h (1 Bft)
21.01.2018 08:55 -2,3 C 96 % 1010,6 hPa 0,0 l/m 0,0 km/h (0 Bft) O-NO 67 0 min 15 W/m -2,8 C 1,6 km/h (1 Bft)
21.01.2018 08:50 -2,2 C 96 % 1010,6 hPa 0,0 l/m 0,0 km/h (0 Bft) O-NO 67 0 min 12 W/m -2,7 C 1,6 km/h (1 Bft)
21.01.2018 08:45 -2,2 C 96 % 1010,5 hPa 0,0 l/m 0,0 km/h (0 Bft) O-NO 67 0 min 8 W/m -2,7 C 1,6 km/h (1 Bft)
21.01.2018 08:40 -2,1 C 96 % 1010,4 hPa 0,0 l/m 0,0 km/h (0 Bft) O-NO 67 0 min 7 W/m -2,6 C 1,6 km/h (1 Bft)
21.01.2018 08:35 -1,9 C 96 % 1010,3 hPa 0,0 l/m 0,0 km/h (0 Bft) O-NO 67 0 min 5 W/m -2,5 C 3,2 km/h (1 Bft)
21.01.2018 08:30 -1,9 C 96 % 1010,2 hPa 0,0 l/m 0,0 km/h (0 Bft) O-NO 67 0 min 1 W/m -2,5 C 1,6 km/h (1 Bft)
21.01.2018 08:25 -1,8 C 96 % 1010,1 hPa 0,0 l/m 0,0 km/h (0 Bft) N 0 0 min 0 W/m -2,4 C 0,0 km/h (0 Bft)
21.01.2018 08:20 -1,8 C 96 % 1010,0 hPa 0,0 l/m 0,0 km/h (0 Bft) O-NO 67 0 min 0 W/m -2,4 C 1,6 km/h (1 Bft)
21.01.2018 08:15 -1,7 C 96 % 1010,0 hPa 0,0 l/m 0,0 km/h (0 Bft) O-NO 67 0 min 0 W/m -2,3 C 1,6 km/h (1 Bft)
21.01.2018 08:10 -1,7 C 96 % 1009,9 hPa 0,0 l/m 0,0 km/h (0 Bft) O-NO 67 0 min 0 W/m -2,3 C 3,2 km/h (1 Bft)
21.01.2018 08:05 -1,6 C 97 % 1009,7 hPa 0,0 l/m 0,0 km/h (0 Bft) O-NO 67 0 min 0 W/m -2,0 C 3,2 km/h (1 Bft)
21.01.2018 08:00 -1,6 C 97 % 1009,6 hPa 0,0 l/m 0,0 km/h (0 Bft) O-NO 67 0 min 0 W/m -2,0 C 1,6 km/h (1 Bft)
21.01.2018 07:55 -1,6 C 96 % 1009,4 hPa 0,0 l/m 0,0 km/h (0 Bft) O-NO 67 0 min 0 W/m -2,2 C 3,2 km/h (1 Bft)
21.01.2018 07:50 -1,6 C 96 % 1009,3 hPa 0,0 l/m 0,0 km/h (0 Bft) O-NO 67 0 min 0 W/m -2,2 C 1,6 km/h (1 Bft)
21.01.2018 07:45 -1,6 C 96 % 1009,2 hPa 0,0 l/m 0,0 km/h (0 Bft) O-NO 67 0 min 0 W/m -2,2 C 1,6 km/h (1 Bft)
21.01.2018 07:40 -1,6 C 96 % 1009,1 hPa 0,0 l/m 0,0 km/h (0 Bft) N 0 0 min 0 W/m -2,2 C 0,0 km/h (0 Bft)
21.01.2018 07:35 -1,6 C 96 % 1008,9 hPa 0,0 l/m 0,0 km/h (0 Bft) O-NO 67 0 min 0 W/m -2,2 C 1,6 km/h (1 Bft)
21.01.2018 07:30 -1,6 C 96 % 1008,8 hPa 0,0 l/m 0,0 km/h (0 Bft) O-NO 67 0 min 0 W/m -2,2 C 1,6 km/h (1 Bft)
21.01.2018 07:25 -1,6 C 96 % 1008,8 hPa 0,0 l/m 0,0 km/h (0 Bft) O-NO 67 0 min 0 W/m -2,2 C 3,2 km/h (1 Bft)
21.01.2018 07:20 -1,5 C 96 % 1008,7 hPa 0,0 l/m 1,6 km/h (1 Bft) O-NO 67 0 min 0 W/m -2,1 C 3,2 km/h (1 Bft)
21.01.2018 07:15 -1,4 C 96 % 1008,7 hPa 0,0 l/m 0,0 km/h (0 Bft) O-NO 67 0 min 0 W/m -2,0 C 1,6 km/h (1 Bft)
21.01.2018 07:10 -1,4 C 96 % 1008,6 hPa 0,0 l/m 0,0 km/h (0 Bft) N 0 0 min 0 W/m -2,0 C 0,0 km/h (0 Bft)
21.01.2018 07:05 -1,3 C 96 % 1008,5 hPa 0,0 l/m 0,0 km/h (0 Bft) N 0 0 min 0 W/m -1,9 C 0,0 km/h (0 Bft)
21.01.2018 07:00 -1,3 C 96 % 1008,4 hPa 0,0 l/m 0,0 km/h (0 Bft) O-NO 67 0 min 0 W/m -1,9 C 1,6 km/h (1 Bft)
21.01.2018 06:55 -1,2 C 96 % 1008,3 hPa 0,0 l/m 0,0 km/h (0 Bft) N 0 0 min 0 W/m -1,8 C 0,0 km/h (0 Bft)
21.01.2018 06:50 -1,2 C 96 % 1008,1 hPa 0,0 l/m 0,0 km/h (0 Bft) N 0 0 min 0 W/m -1,8 C 0,0 km/h (0 Bft)
21.01.2018 06:45 -1,1 C 96 % 1008,0 hPa 0,0 l/m 0,0 km/h (0 Bft) O-NO 67 0 min 0 W/m -1,7 C 1,6 km/h (1 Bft)
21.01.2018 06:40 -1,1 C 96 % 1008,0 hPa 0,0 l/m 0,0 km/h (0 Bft) O-NO 67 0 min 0 W/m -1,7 C 1,6 km/h (1 Bft)
21.01.2018 06:35 -1,1 C 96 % 1008,0 hPa 0,0 l/m 0,0 km/h (0 Bft) O-NO 67 0 min 0 W/m -1,7 C 1,6 km/h (1 Bft)
21.01.2018 06:30 -1,1 C 96 % 1007,9 hPa 0,0 l/m 0,0 km/h (0 Bft) N 0 0 min 0 W/m -1,7 C 0,0 km/h (0 Bft)
21.01.2018 06:25 -1,0 C 96 % 1007,9 hPa 0,0 l/m 0,0 km/h (0 Bft) O-NO 67 0 min 0 W/m -1,6 C 1,6 km/h (1 Bft)
21.01.2018 06:20 -1,0 C 96 % 1007,8 hPa 0,0 l/m 0,0 km/h (0 Bft) O-NO 67 0 min 0 W/m -1,6 C 3,2 km/h (1 Bft)
21.01.2018 06:15 -0,9 C 96 % 1007,7 hPa 0,0 l/m 0,0 km/h (0 Bft) O-NO 67 0 min 0 W/m -1,5 C 1,6 km/h (1 Bft)
21.01.2018 06:10 -0,9 C 96 % 1007,6 hPa 0,0 l/m 0,0 km/h (0 Bft) O-NO 67 0 min 0 W/m -1,5 C 3,2 km/h (1 Bft)
21.01.2018 06:05 -0,8 C 96 % 1007,6 hPa 0,0 l/m 0,0 km/h (0 Bft) N 0 0 min 0 W/m -1,4 C 0,0 km/h (0 Bft)
21.01.2018 06:00 -0,8 C 96 % 1007,5 hPa 0,0 l/m 0,0 km/h (0 Bft) N 0 0 min 0 W/m -1,4 C 0,0 km/h (0 Bft)
21.01.2018 05:55 -0,8 C 96 % 1007,4 hPa 0,0 l/m 0,0 km/h (0 Bft) N 0 0 min 0 W/m -1,4 C 0,0 km/h (0 Bft)
21.01.2018 05:50 -0,8 C 96 % 1007,3 hPa 0,0 l/m 0,0 km/h (0 Bft) O-NO 67 0 min 0 W/m -1,4 C 1,6 km/h (1 Bft)
21.01.2018 05:45 -0,7 C 96 % 1007,2 hPa 0,0 l/m 1,6 km/h (1 Bft) O-NO 67 0 min 0 W/m -1,3 C 3,2 km/h (1 Bft)
21.01.2018 05:40 -0,8 C 96 % 1007,1 hPa 0,0 l/m 1,6 km/h (1 Bft) O-NO 67 0 min 0 W/m -1,4 C 3,2 km/h (1 Bft)
21.01.2018 05:35 -0,8 C 96 % 1006,9 hPa 0,0 l/m 0,0 km/h (0 Bft) N 0 0 min 0 W/m -1,4 C 0,0 km/h (0 Bft)
21.01.2018 05:30 -0,7 C 96 % 1006,9 hPa 0,0 l/m 0,0 km/h (0 Bft) N 0 0 min 0 W/m -1,3 C 0,0 km/h (0 Bft)
21.01.2018 05:25 -0,7 C 96 % 1006,8 hPa 0,0 l/m 0,0 km/h (0 Bft) N 0 0 min 0 W/m -1,3 C 0,0 km/h (0 Bft)
21.01.2018 05:20 -0,7 C 96 % 1006,7 hPa 0,0 l/m 0,0 km/h (0 Bft) N 0 0 min 0 W/m -1,3 C 0,0 km/h (0 Bft)
21.01.2018 05:15 -0,7 C 96 % 1006,6 hPa 0,0 l/m 0,0 km/h (0 Bft) N 0 0 min 0 W/m -1,3 C 0,0 km/h (0 Bft)
21.01.2018 05:10 -0,6 C 96 % 1006,5 hPa 0,0 l/m 0,0 km/h (0 Bft) N 0 0 min 0 W/m -1,2 C 0,0 km/h (0 Bft)
21.01.2018 05:05 -0,6 C 96 % 1006,4 hPa 0,0 l/m 0,0 km/h (0 Bft) N 0 0 min 0 W/m -1,2 C 0,0 km/h (0 Bft)
21.01.2018 05:00 -0,6 C 96 % 1006,4 hPa 0,0 l/m 0,0 km/h (0 Bft) N 0 0 min 0 W/m -1,2 C 0,0 km/h (0 Bft)
21.01.2018 04:55 -0,7 C 96 % 1006,3 hPa 0,0 l/m 0,0 km/h (0 Bft) N 0 0 min 0 W/m -1,3 C 0,0 km/h (0 Bft)
21.01.2018 04:50 -0,7 C 96 % 1006,3 hPa 0,0 l/m 0,0 km/h (0 Bft) N 0 0 min 0 W/m -1,3 C 0,0 km/h (0 Bft)
21.01.2018 04:45 -0,7 C 96 % 1006,1 hPa 0,0 l/m 0,0 km/h (0 Bft) N 0 0 min 0 W/m -1,3 C 0,0 km/h (0 Bft)
21.01.2018 04:40 -0,7 C 96 % 1006,0 hPa 0,0 l/m 0,0 km/h (0 Bft) N 0 0 min 0 W/m -1,3 C 0,0 km/h (0 Bft)
21.01.2018 04:35 -0,7 C 96 % 1006,0 hPa 0,0 l/m 0,0 km/h (0 Bft) N 0 0 min 0 W/m -1,3 C 0,0 km/h (0 Bft)
21.01.2018 04:30 -0,7 C 96 % 1006,0 hPa 0,0 l/m 0,0 km/h (0 Bft) N 0 0 min 0 W/m -1,3 C 0,0 km/h (0 Bft)
21.01.2018 04:25 -0,7 C 96 % 1005,9 hPa 0,0 l/m 0,0 km/h (0 Bft) N 0 0 min 0 W/m -1,3 C 0,0 km/h (0 Bft)
21.01.2018 04:20 -0,7 C 96 % 1005,8 hPa 0,0 l/m 0,0 km/h (0 Bft) N 0 0 min 0 W/m -1,3 C 0,0 km/h (0 Bft)
21.01.2018 04:15 -0,7 C 96 % 1005,6 hPa 0,0 l/m 0,0 km/h (0 Bft) N 0 0 min 0 W/m -1,3 C 0,0 km/h (0 Bft)
21.01.2018 04:10 -0,7 C 96 % 1005,6 hPa 0,0 l/m 0,0 km/h (0 Bft) N 0 0 min 0 W/m -1,3 C 0,0 km/h (0 Bft)
21.01.2018 04:05 -0,7 C 96 % 1005,6 hPa 0,0 l/m 0,0 km/h (0 Bft) N 0 0 min 0 W/m -1,3 C 0,0 km/h (0 Bft)
21.01.2018 04:00 -0,7 C 96 % 1005,6 hPa 0,0 l/m 0,0 km/h (0 Bft) N 0 0 min 0 W/m -1,3 C 0,0 km/h (0 Bft)
21.01.2018 03:55 -0,7 C 96 % 1005,5 hPa 0,0 l/m 0,0 km/h (0 Bft) N 0 0 min 0 W/m -1,3 C 0,0 km/h (0 Bft)
21.01.2018 03:50 -0,7 C 96 % 1005,4 hPa 0,0 l/m 0,0 km/h (0 Bft) N 0 0 min 0 W/m -1,3 C 0,0 km/h (0 Bft)
21.01.2018 03:45 -0,8 C 96 % 1005,4 hPa 0,0 l/m 0,0 km/h (0 Bft) N 0 0 min 0 W/m -1,4 C 0,0 km/h (0 Bft)
21.01.2018 03:40 -0,8 C 96 % 1005,3 hPa 0,0 l/m 0,0 km/h (0 Bft) N 0 0 min 0 W/m -1,4 C 0,0 km/h (0 Bft)
21.01.2018 03:35 -0,8 C 96 % 1005,2 hPa 0,0 l/m 0,0 km/h (0 Bft) N 0 0 min 0 W/m -1,4 C 0,0 km/h (0 Bft)
21.01.2018 03:30 -0,8 C 96 % 1005,1 hPa 0,0 l/m 0,0 km/h (0 Bft) N 0 0 min 0 W/m -1,4 C 0,0 km/h (0 Bft)
21.01.2018 03:25 -0,8 C 96 % 1005,0 hPa 0,0 l/m 0,0 km/h (0 Bft) N 0 0 min 0 W/m -1,4 C 0,0 km/h (0 Bft)
21.01.2018 03:20 -0,8 C 96 % 1004,9 hPa 0,0 l/m 0,0 km/h (0 Bft) N 0 0 min 0 W/m -1,4 C 0,0 km/h (0 Bft)
21.01.2018 03:15 -0,8 C 96 % 1004,9 hPa 0,0 l/m 0,0 km/h (0 Bft) N 0 0 min 0 W/m -1,4 C 0,0 km/h (0 Bft)
21.01.2018 03:10 -0,8 C 96 % 1004,9 hPa 0,0 l/m 0,0 km/h (0 Bft) N 0 0 min 0 W/m -1,4 C 0,0 km/h (0 Bft)
21.01.2018 03:05 -0,8 C 96 % 1004,8 hPa 0,0 l/m 0,0 km/h (0 Bft) N 0 0 min 0 W/m -1,4 C 0,0 km/h (0 Bft)
21.01.2018 03:00 -0,8 C 96 % 1004,7 hPa 0,0 l/m 0,0 km/h (0 Bft) N 0 0 min 0 W/m -1,4 C 0,0 km/h (0 Bft)
21.01.2018 02:55 -0,7 C 96 % 1004,6 hPa 0,0 l/m 0,0 km/h (0 Bft) N 0 0 min 0 W/m -1,3 C 0,0 km/h (0 Bft)
21.01.2018 02:50 -0,7 C 96 % 1004,5 hPa 0,0 l/m 0,0 km/h (0 Bft) N 0 0 min 0 W/m -1,3 C 0,0 km/h (0 Bft)
21.01.2018 02:45 -0,7 C 96 % 1004,5 hPa 0,0 l/m 0,0 km/h (0 Bft) N 0 0 min 0 W/m -1,3 C 0,0 km/h (0 Bft)
21.01.2018 02:40 -0,7 C 96 % 1004,4 hPa 0,0 l/m 0,0 km/h (0 Bft) N 0 0 min 0 W/m -1,3 C 0,0 km/h (0 Bft)
21.01.2018 02:35 -0,7 C 96 % 1004,3 hPa 0,0 l/m 0,0 km/h (0 Bft) N 0 0 min 0 W/m -1,3 C 0,0 km/h (0 Bft)
21.01.2018 02:30 -0,7 C 96 % 1004,2 hPa 0,0 l/m 0,0 km/h (0 Bft) N 0 0 min 0 W/m -1,3 C 0,0 km/h (0 Bft)
21.01.2018 02:25 -0,7 C 96 % 1004,2 hPa 0,0 l/m 0,0 km/h (0 Bft) N 0 0 min 0 W/m -1,3 C 0,0 km/h (0 Bft)
21.01.2018 02:20 -0,7 C 96 % 1004,1 hPa 0,0 l/m 0,0 km/h (0 Bft) N 0 0 min 0 W/m -1,3 C 0,0 km/h (0 Bft)
21.01.2018 02:15 -0,8 C 96 % 1004,0 hPa 0,0 l/m 0,0 km/h (0 Bft) O-SO 112 0 min 0 W/m -1,4 C 1,6 km/h (1 Bft)
21.01.2018 02:10 -0,8 C 96 % 1003,9 hPa 0,0 l/m 0,0 km/h (0 Bft) O-SO 112 0 min 0 W/m -1,4 C 1,6 km/h (1 Bft)
21.01.2018 02:05 -0,8 C 96 % 1003,9 hPa 0,0 l/m 0,0 km/h (0 Bft) N 0 0 min 0 W/m -1,4 C 0,0 km/h (0 Bft)
21.01.2018 02:00 -0,8 C 96 % 1003,8 hPa 0,0 l/m 0,0 km/h (0 Bft) O-SO 112 0 min 0 W/m -1,4 C 1,6 km/h (1 Bft)
21.01.2018 01:55 -0,8 C 96 % 1003,7 hPa 0,0 l/m 0,0 km/h (0 Bft) N 0 0 min 0 W/m -1,4 C 0,0 km/h (0 Bft)
21.01.2018 01:50 -0,8 C 96 % 1003,7 hPa 0,0 l/m 0,0 km/h (0 Bft) N 0 0 min 0 W/m -1,4 C 0,0 km/h (0 Bft)
21.01.2018 01:45 -0,8 C 96 % 1003,6 hPa 0,0 l/m 0,0 km/h (0 Bft) O-SO 112 0 min 0 W/m -1,4 C 1,6 km/h (1 Bft)
21.01.2018 01:40 -0,8 C 96 % 1003,5 hPa 0,0 l/m 0,0 km/h (0 Bft) O-SO 112 0 min 0 W/m -1,4 C 1,6 km/h (1 Bft)
21.01.2018 01:35 -0,9 C 96 % 1003,5 hPa 0,0 l/m 0,0 km/h (0 Bft) N 0 0 min 0 W/m -1,5 C 0,0 km/h (0 Bft)
21.01.2018 01:30 -0,8 C 96 % 1003,4 hPa 0,0 l/m 0,0 km/h (0 Bft) N 0 0 min 0 W/m -1,4 C 0,0 km/h (0 Bft)
21.01.2018 01:25 -0,8 C 96 % 1003,4 hPa 0,0 l/m 0,0 km/h (0 Bft) N 0 0 min 0 W/m -1,4 C 0,0 km/h (0 Bft)
21.01.2018 01:20 -0,8 C 96 % 1003,3 hPa 0,0 l/m 0,0 km/h (0 Bft) O-SO 112 0 min 0 W/m -1,4 C 1,6 km/h (1 Bft)
21.01.2018 01:15 -0,9 C 96 % 1003,3 hPa 0,0 l/m 0,0 km/h (0 Bft) N 0 0 min 0 W/m -1,5 C 0,0 km/h (0 Bft)
21.01.2018 01:10 -0,9 C 96 % 1003,2 hPa 0,0 l/m 0,0 km/h (0 Bft) N 0 0 min 0 W/m -1,5 C 0,0 km/h (0 Bft)
21.01.2018 01:05 -0,9 C 96 % 1003,1 hPa 0,0 l/m 0,0 km/h (0 Bft) N 0 0 min 0 W/m -1,5 C 0,0 km/h (0 Bft)
21.01.2018 01:00 -0,9 C 96 % 1003,0 hPa 0,0 l/m 0,0 km/h (0 Bft) N 0 0 min 0 W/m -1,5 C 0,0 km/h (0 Bft)
21.01.2018 00:55 -0,8 C 95 % 1003,0 hPa 0,0 l/m 0,0 km/h (0 Bft) N 0 0 min 0 W/m -1,5 C 0,0 km/h (0 Bft)
21.01.2018 00:50 -0,8 C 95 % 1003,0 hPa 0,0 l/m 0,0 km/h (0 Bft) N 0 0 min 0 W/m -1,5 C 0,0 km/h (0 Bft)
21.01.2018 00:45 -0,8 C 95 % 1002,9 hPa 0,0 l/m 0,0 km/h (0 Bft) N 0 0 min 0 W/m -1,5 C 0,0 km/h (0 Bft)
21.01.2018 00:40 -0,8 C 95 % 1002,8 hPa 0,0 l/m 0,0 km/h (0 Bft) N 0 0 min 0 W/m -1,5 C 0,0 km/h (0 Bft)
21.01.2018 00:35 -0,8 C 95 % 1002,8 hPa 0,0 l/m 0,0 km/h (0 Bft) N 0 0 min 0 W/m -1,5 C 0,0 km/h (0 Bft)
21.01.2018 00:30 -0,8 C 95 % 1002,8 hPa 0,0 l/m 0,0 km/h (0 Bft) N 0 0 min 0 W/m -1,5 C 0,0 km/h (0 Bft)
21.01.2018 00:25 -0,8 C 95 % 1002,8 hPa 0,0 l/m 0,0 km/h (0 Bft) O-SO 112 0 min 0 W/m -1,5 C 1,6 km/h (1 Bft)
21.01.2018 00:20 -0,9 C 95 % 1002,7 hPa 0,0 l/m 0,0 km/h (0 Bft) N 0 0 min 0 W/m -1,6 C 0,0 km/h (0 Bft)
21.01.2018 00:15 -0,8 C 95 % 1002,7 hPa 0,0 l/m 0,0 km/h (0 Bft) N 0 0 min 0 W/m -1,5 C 0,0 km/h (0 Bft)
21.01.2018 00:10 -0,8 C 95 % 1002,6 hPa 0,0 l/m 0,0 km/h (0 Bft) N 0 0 min 0 W/m -1,5 C 0,0 km/h (0 Bft)
21.01.2018 00:05 -0,7 C 95 % 1002,5 hPa 0,0 l/m 0,0 km/h (0 Bft) N 0 0 min 0 W/m -1,4 C 0,0 km/h (0 Bft)
21.01.2018 00:00 -0,6 C 95 % 1002,4 hPa 0,0 l/m 0,0 km/h (0 Bft) O-SO 113 0 min 0 W/m -1,3 C 0,0 km/h (0 Bft)
20.01.2018 23:55 -0,5 C 95 % 1002,3 hPa 0,0 l/m 0,0 km/h (0 Bft) O-SO 113 0 min 0 W/m -1,2 C 0,0 km/h (0 Bft)
20.01.2018 23:50 -0,4 C 95 % 1002,3 hPa 0,0 l/m 0,0 km/h (0 Bft) O-SO 113 0 min 0 W/m -1,1 C 0,0 km/h (0 Bft)
20.01.2018 23:45 -0,3 C 95 % 1002,2 hPa 0,0 l/m 0,0 km/h (0 Bft) O-SO 113 0 min 0 W/m -1,0 C 0,0 km/h (0 Bft)
20.01.2018 23:40 -0,3 C 95 % 1002,2 hPa 0,0 l/m 0,0 km/h (0 Bft) O-SO 113 0 min 0 W/m -1,0 C 0,0 km/h (0 Bft)
20.01.2018 23:35 -0,2 C 95 % 1002,1 hPa 0,0 l/m 0,0 km/h (0 Bft) O-SO 113 0 min 0 W/m -0,9 C 0,0 km/h (0 Bft)
20.01.2018 23:30 -0,1 C 95 % 1002,1 hPa 0,0 l/m 0,0 km/h (0 Bft) O-SO 113 0 min 0 W/m -0,8 C 0,0 km/h (0 Bft)
20.01.2018 23:25 -0,1 C 95 % 1002,1 hPa 0,0 l/m 0,0 km/h (0 Bft) O-SO 113 0 min 0 W/m -0,8 C 0,0 km/h (0 Bft)
20.01.2018 23:20 0,0 C 95 % 1002,1 hPa 0,0 l/m 0,0 km/h (0 Bft) O-SO 113 0 min 0 W/m -0,7 C 0,0 km/h (0 Bft)
20.01.2018 23:15 0,1 C 95 % 1002,1 hPa 0,0 l/m 0,0 km/h (0 Bft) O-SO 113 0 min 0 W/m -0,6 C 0,0 km/h (0 Bft)
20.01.2018 23:10 0,2 C 95 % 1002,1 hPa 0,0 l/m 0,0 km/h (0 Bft) O-SO 113 0 min 0 W/m -0,5 C 0,0 km/h (0 Bft)
20.01.2018 23:05 0,3 C 95 % 1002,1 hPa 0,0 l/m 0,0 km/h (0 Bft) O-SO 113 0 min 0 W/m -0,4 C 0,0 km/h (0 Bft)
20.01.2018 23:00 0,3 C 95 % 1002,0 hPa 0,0 l/m 0,0 km/h (0 Bft) O-SO 113 0 min 0 W/m -0,4 C 0,0 km/h (0 Bft)
20.01.2018 22:55 0,4 C 95 % 1002,0 hPa 0,0 l/m 0,0 km/h (0 Bft) O-SO 113 0 min 0 W/m -0,3 C 1,6 km/h (1 Bft)
20.01.2018 22:50 0,4 C 95 % 1001,9 hPa 0,0 l/m 0,3 km/h (0 Bft) O-SO 113 0 min 0 W/m -0,3 C 1,6 km/h (1 Bft)
20.01.2018 22:45 0,4 C 95 % 1001,9 hPa 0,0 l/m 0,3 km/h (0 Bft) O-SO 115 0 min 0 W/m -0,3 C 1,6 km/h (1 Bft)
20.01.2018 22:40 0,4 C 95 % 1001,9 hPa 0,0 l/m 0,3 km/h (0 Bft) O-SO 115 0 min 0 W/m -0,3 C 3,2 km/h (1 Bft)
20.01.2018 22:35 0,4 C 95 % 1001,9 hPa 0,0 l/m 0,4 km/h (0 Bft) O-SO 115 0 min 0 W/m -0,3 C 3,2 km/h (1 Bft)
20.01.2018 22:30 0,4 C 95 % 1001,9 hPa 0,0 l/m 0,2 km/h (0 Bft) O-SO 115 0 min 0 W/m -0,3 C 1,6 km/h (1 Bft)
20.01.2018 22:25 0,4 C 95 % 1001,8 hPa 0,0 l/m 0,1 km/h (0 Bft) O-SO 115 0 min 0 W/m -0,3 C 1,6 km/h (1 Bft)
20.01.2018 22:20 0,4 C 95 % 1001,8 hPa 0,0 l/m 0,1 km/h (0 Bft) O-SO 115 0 min 0 W/m -0,3 C 3,2 km/h (1 Bft)
20.01.2018 22:15 0,4 C 95 % 1001,7 hPa 0,0 l/m 0,2 km/h (0 Bft) O-SO 114 0 min 0 W/m -0,3 C 3,2 km/h (1 Bft)
20.01.2018 22:10 0,4 C 95 % 1001,7 hPa 0,0 l/m 0,0 km/h (0 Bft) O-SO 114 0 min 0 W/m -0,3 C 0,0 km/h (0 Bft)
20.01.2018 22:05 0,5 C 95 % 1001,7 hPa 0,0 l/m 0,0 km/h (0 Bft) O-SO 114 0 min 0 W/m -0,2 C 0,0 km/h (0 Bft)
20.01.2018 22:00 0,5 C 95 % 1001,7 hPa 0,0 l/m 0,0 km/h (0 Bft) O-SO 114 0 min 0 W/m -0,2 C 0,0 km/h (0 Bft)
20.01.2018 21:55 0,6 C 95 % 1001,6 hPa 0,0 l/m 0,0 km/h (0 Bft) O-SO 114 0 min 0 W/m -0,1 C 0,0 km/h (0 Bft)
20.01.2018 21:50 0,6 C 95 % 1001,6 hPa 0,0 l/m 0,0 km/h (0 Bft) O-SO 114 0 min 0 W/m -0,1 C 0,0 km/h (0 Bft)
20.01.2018 21:45 0,7 C 95 % 1001,6 hPa 0,0 l/m 0,0 km/h (0 Bft) O-SO 114 0 min 0 W/m -0,0 C 1,6 km/h (1 Bft)
20.01.2018 21:40 0,7 C 95 % 1001,6 hPa 0,0 l/m 0,0 km/h (0 Bft) O-SO 114 0 min 0 W/m -0,0 C 0,0 km/h (0 Bft)
20.01.2018 21:35 0,8 C 95 % 1001,6 hPa 0,0 l/m 0,0 km/h (0 Bft) O-SO 114 0 min 0 W/m 0,1 C 1,6 km/h (1 Bft)
20.01.2018 21:30 0,9 C 95 % 1001,6 hPa 0,0 l/m 0,0 km/h (0 Bft) O-SO 114 0 min 0 W/m 0,2 C 0,0 km/h (0 Bft)
20.01.2018 21:25 1,0 C 95 % 1001,5 hPa 0,0 l/m 0,1 km/h (0 Bft) O-SO 114 0 min 0 W/m 0,3 C 1,6 km/h (1 Bft)
20.01.2018 21:20 1,1 C 95 % 1001,4 hPa 0,0 l/m 0,0 km/h (0 Bft) O-SO 114 0 min 0 W/m 0,4 C 0,0 km/h (0 Bft)
20.01.2018 21:15 1,1 C 95 % 1001,5 hPa 0,0 l/m 0,1 km/h (0 Bft) O-SO 114 0 min 0 W/m 0,4 C 1,6 km/h (1 Bft)
20.01.2018 21:10 1,2 C 95 % 1001,4 hPa 0,0 l/m 0,2 km/h (0 Bft) O-SO 114 0 min 0 W/m 0,5 C 1,6 km/h (1 Bft)
20.01.2018 21:05 1,2 C 95 % 1001,4 hPa 0,0 l/m 0,0 km/h (0 Bft) O-SO 114 0 min 0 W/m 0,5 C 0,0 km/h (0 Bft)
20.01.2018 21:00 1,3 C 95 % 1001,5 hPa 0,0 l/m 0,2 km/h (0 Bft) O-SO 114 0 min 0 W/m 0,6 C 3,2 km/h (1 Bft)
20.01.2018 20:55 1,3 C 95 % 1001,4 hPa 0,0 l/m 0,2 km/h (0 Bft) O-SO 114 0 min 0 W/m 0,6 C 1,6 km/h (1 Bft)
20.01.2018 20:50 1,3 C 95 % 1001,4 hPa 0,0 l/m 0,0 km/h (0 Bft) O-SO 114 0 min 0 W/m 0,6 C 1,6 km/h (1 Bft)
20.01.2018 20:45 1,4 C 95 % 1001,3 hPa 0,0 l/m 0,0 km/h (0 Bft) O-SO 114 0 min 0 W/m 0,7 C 0,0 km/h (0 Bft)
20.01.2018 20:40 1,4 C 95 % 1001,3 hPa 0,0 l/m 0,2 km/h (0 Bft) O-SO 114 0 min 0 W/m 0,7 C 3,2 km/h (1 Bft)
20.01.2018 20:35 1,4 C 95 % 1001,3 hPa 0,0 l/m 0,6 km/h (0 Bft) O-SO 114 0 min 0 W/m 0,7 C 3,2 km/h (1 Bft)
20.01.2018 20:30 1,4 C 95 % 1001,3 hPa 0,0 l/m 0,4 km/h (0 Bft) O-SO 114 0 min 0 W/m 0,7 C 1,6 km/h (1 Bft)
20.01.2018 20:25 1,4 C 95 % 1001,3 hPa 0,0 l/m 0,0 km/h (0 Bft) O-SO 114 0 min 0 W/m 0,7 C 0,0 km/h (0 Bft)
20.01.2018 20:20 1,4 C 95 % 1001,3 hPa 0,0 l/m 0,0 km/h (0 Bft) O-SO 114 0 min 0 W/m 0,7 C 0,0 km/h (0 Bft)
20.01.2018 20:15 1,4 C 95 % 1001,3 hPa 0,0 l/m 0,0 km/h (0 Bft) O-SO 114 0 min 0 W/m 0,7 C 1,6 km/h (1 Bft)
20.01.2018 20:10 1,4 C 95 % 1001,2 hPa 0,0 l/m 0,0 km/h (0 Bft) O-SO 114 0 min 0 W/m 0,7 C 0,0 km/h (0 Bft)
20.01.2018 20:05 1,4 C 95 % 1001,2 hPa 0,0 l/m 0,0 km/h (0 Bft) O-SO 114 0 min 0 W/m 0,7 C 0,0 km/h (0 Bft)
20.01.2018 20:00 1,4 C 95 % 1001,1 hPa 0,0 l/m 0,0 km/h (0 Bft) O-SO 114 0 min 0 W/m 0,7 C 0,0 km/h (0 Bft)
_ Min-Zeit 10:00 20:00 20:00 - 20:00 - - - - 10:00 20:00
Minimum _ -2,7 C 95 % 1001,1 hPa - 0,0 km/h (0 Bft) - - - - -3,2 C 0,0 km/h (0 Bft)
_ Max-Zeit 20:00 08:00 17:25 14:30 17:25 - - 20:00 12:15 20:00 17:25
Maximum _ 1,4 C 97 % 1016,2 hPa 0,2 l/m 3,7 km/h
SO (1 Bft)
- - 0 min 139 W/m 0,7 C 9,7 km/h
S (2 Bft)
Durchschnitt _ -0,7 C 96 % 1008,3 hPa #0,2 l/m 0,3 km/h (0 Bft) S - #0 min. 74 W/m -1,2 C 1,6 km/h (1 Bft)